Regional Weather Roundup
Issued by NWS Albany, NY

Home | Current Version | Previous Version | Text Only | Print | Product List | Glossary On
Versions: 1 2 3 4 5 6 7 8 9 10 11 12 13 14 15 16 17 18 19 20 21 22 23 24 25 26 27 28 29 30 31 32 33 34 35 36 37 38 39 40 41 42 43 44 45
000
ASUS41 KALY 212310
RWRALY

NEW YORK STATE HOURLY WEATHER ROUNDUP
NATIONAL WEATHER SERVICE ALBANY NY
600 PM EST SUN DEC 21 2014

NOTE: "FAIR" INDICATES FEW OR NO CLOUDS BELOW 12,000 FEET WITH NO
SIGNIFICANT WEATHER AND/OR NO OBSTRUCTIONS TO VISIBILITY.

NYZ032-033-038>043-046>054-057>066-NYZ062>081-220000-
EAST


CITY           SKY/WX    TMP DP  RH WIND       PRES   REMARKS
ALBANY         CLOUDY    31  23  72 N3        30.35R
GLENS FALLS    CLOUDY    28  22  78 E3        30.35R
POUGHKEEPSIE   CLOUDY    33  26  75 N5        30.33R WCI  29
NEWBURGH       CLOUDY    32  28  86 VRB5      30.32R WCI  27
MONTGOMERY     CLOUDY    32  27  81 N3        30.30R
WHITE PLAINS   MOCLDY    31  28  89 N9        30.28R WCI  23
ISLIP          DRIZZLE   36  32  85 N9        30.28S WCI  29
NEW YORK CITY  CLOUDY    35  29  78 N9        30.31R WCI  28
CENTRAL PARK   CLOUDY    35  26  69 N7        30.33R WCI  29
$$

NYZ005>009-017-018-044>046-055-056-220000-
CENTRAL


CITY           SKY/WX    TMP DP  RH WIND       PRES   REMARKS
FULTON         CLOUDY    31  25  78 CALM      30.33R
SYRACUSE       FLURRIES  30  26  85 E3        30.33R
ROME           CLOUDY    31  23  72 CALM      30.34S
ELMIRA         CLOUDY    31  23  72 NW3       30.29R
BINGHAMTON     CLOUDY    27  20  75 CALM      30.25R
MONTICELLO     CLOUDY    28  23  80 W3        30.27R
$$

NYZ026>034-041>043-220000-
NORTH


CITY           SKY/WX    TMP DP  RH WIND       PRES   REMARKS
WATERTOWN      CLOUDY    30  21  69 NE3       30.33R
FORT DRUM      NOT AVBL
MASSENA        CLOUDY    20  16  84 E5        30.37R WCI  13
SARANAC LAKE   CLOUDY    23  19  85 CALM      30.24R
PLATTSBURGH    CLOUDY    20  18  92 N5        30.37R WCI  13
$$

NYZ001>004-010>016-019>021-220000-
WEST


CITY           SKY/WX    TMP DP  RH WIND       PRES   REMARKS
NIAGARA FALLS  CLOUDY    31  21  66 S7        30.29S WCI  24
BUFFALO        CLOUDY    32  22  66 CALM      30.29S
DUNKIRK        CLOUDY    31  23  72 E6        30.29S WCI  25
JAMESTOWN      CLOUDY    27  19  74 S3        30.23R
WELLSVILLE     CLOUDY    26  21  81 E3        30.23R
ROCHESTER      CLOUDY    33  21  61 CALM      30.31R
PENN YAN       CLOUDY    32  22  66 CALM      30.29R
$$

             KEY
       WCI = WIND CHILL INDEX
       VSB = VISIBILITY
       HX  = HEAT INDEX
$$



USA.gov is the U.S. government's official web portal to all federal, state and local government web resources and services.